sat.trackr.live / text

‹ back to catalog

COSMOS 2489 (RODNIK-S 8)

NORAD 39484 · 2013-076B

PAYLOAD ACTIVE UNKNOWN

§ Identity

Operator
Country
CIS
Launch date
2013-12-25
Launch site
PLMSC
Launch vehicle
Mass (kg)
RCS (m²)
1.70

External: N2YO · Heavens-Above · Gunter

§ Orbital elements

Epoch: 2026-09-20T03:51:42.714720Z

Period
115.86 min
Inclination
82.4845°
Eccentricity
0.0020323
Mean motion
12.42882503 rev/d
Perigee alt
1,478.4 km
Apogee alt
1,510.4 km
Semi-major
7,872.5 km
B*
1.8658e-4
RAAN
110.9338°
Arg perigee
249.3138°
Mean anomaly
110.5763°
Rev number
57,774

§ Raw data

COSMOS 2489 (RODNIK-S 8)1 39484U 13076B   26263.16091105  .00000036  00000+0  18658-3 0  99962 39484  82.4845 110.9338 0020323 249.3138 110.5763 12.42882503577744

JSON: /api/v1/satellites/39484 · /tle

For live sub-satellite position, see the globe view (requires WebGL).

§ Visibility from observer

Set your observer location to see the next 7 days of passes ≥ 10°. The values pass through the URL so the page stays shareable.

No JS? Fill the form by hand. The geolocation button needs JavaScript.

§ Radio — SatNOGS DB

ModeDescriptionDownlinkUplink
FM 265.95 265.950 MHz
FM UHF Unknown 387.175 MHz
FM UHF Unknown 388.687 MHz

3 transmitters · refreshed weekly from db.satnogs.org